TimeMST,TemperatureF,Dew PointF,Humidity,Sea Level PressureIn,VisibilityMPH,Wind Direction,Wind SpeedMPH,Gust SpeedMPH,PrecipitationIn,Events,Conditions,WindDirDegrees,DateUTC
12:53 AM,26.1,15.1,63,30.24,10.0,North,6.9,-,N/A,,Clear,350,2012-12-04 07:53:00
1:53 AM,25.0,15.1,66,30.25,10.0,NNW,3.5,-,N/A,,Clear,340,2012-12-04 08:53:00
2:53 AM,25.0,15.1,66,30.26,10.0,North,9.2,-,N/A,,Clear,350,2012-12-04 09:53:00
5:53 AM,21.9,14.0,72,30.35,10.0,South,4.6,-,N/A,,Clear,190,2012-12-04 12:53:00
6:53 AM,23.0,14.0,68,30.35,10.0,Calm,Calm,-,N/A,,Clear,0,2012-12-04 13:53:00
7:53 AM,21.0,14.0,74,30.35,10.0,Calm,Calm,-,N/A,,Clear,0,2012-12-04 14:53:00
8:53 AM,25.0,17.1,72,30.31,10.0,SE,4.6,-,N/A,,Clear,140,2012-12-04 15:53:00
9:53 AM,30.0,19.0,64,30.28,10.0,SE,5.8,-,N/A,,Clear,140,2012-12-04 16:53:00
10:53 AM,39.9,18.0,41,30.25,10.0,SSE,5.8,-,N/A,,Clear,160,2012-12-04 17:53:00
11:53 AM,50.0,10.9,21,30.17,10.0,WSW,13.8,-,N/A,,Mostly Cloudy,240,2012-12-04 18:53:00
12:53 PM,52.0,14.0,22,30.11,10.0,West,24.2,34.5,N/A,,Clear,260,2012-12-04 19:53:00
1:53 PM,51.1,19.0,28,30.09,10.0,West,24.2,29.9,N/A,,Clear,260,2012-12-04 20:53:00
2:53 PM,51.1,21.0,31,30.10,10.0,West,8.1,-,N/A,,Clear,280,2012-12-04 21:53:00
3:53 PM,50.0,21.9,33,30.11,10.0,West,23.0,28.8,N/A,,Partly Cloudy,270,2012-12-04 22:53:00
4:53 PM,46.9,21.0,36,30.14,10.0,West,13.8,-,N/A,,Clear,270,2012-12-04 23:53:00
5:53 PM,46.0,21.9,39,30.16,10.0,West,11.5,-,N/A,,Clear,280,2012-12-05 00:53:00
6:53 PM,42.1,23.0,47,30.18,10.0,NNE,3.5,-,N/A,,Clear,20,2012-12-05 01:53:00
7:53 PM,46.0,24.1,42,30.16,10.0,West,13.8,-,N/A,,Clear,260,2012-12-05 02:53:00
8:53 PM,41.0,24.1,51,30.15,10.0,West,9.2,-,N/A,,Clear,280,2012-12-05 03:53:00
9:53 PM,43.0,26.1,51,30.10,10.0,WNW,5.8,-,N/A,,Clear,300,2012-12-05 04:53:00
10:53 PM,42.1,27.0,55,30.06,10.0,South,3.5,-,N/A,,Clear,170,2012-12-05 05:53:00
11:53 PM,50.0,30.9,48,29.99,10.0,West,17.3,-,N/A,,Clear,270,2012-12-05 06:53:00